Temp
46 45 43 41 41 41 40 38 38 38 38 37 35 33 32 30 30 33 33 35 36 37 37 38 39 41 40 39 40 39 38 39 35 43 48 47 47 52 51 50 52 51 50
46 44 41 39 41 40 38 38 38 38 38 38 38 37 36 33 35 33 33 33 34 34 35 35 36 41 39 39 40 39 38 40 38 40 45 48 47 52 52 48 54 59 52
45 42 40 37 39 37 38 39 39 38 38 37 37 36 35 35 35 34 33 33 33 35 35 33 33 37 40 39 39 39 40 44 42 42 43 48 46 49 51 49 51 51 54
43 39 38 39 39 38 38 38 38 38 36 37 37 35 34 35 35 34 35 33 33 33 34 35 35 35 38 39 41 40 41 39 42 42 43 44 45 50 48 47 47 50 50
41 41 39 39 39 38 37 37 37 37 36 34 35 34 34 34 34 33 35 34 33 33 34 35 36 38 40 39 41 40 40 37 40 41 41 42 47 48 45 46 47 47 50
41 40 39 38 38 37 37 37 37 35 33 32 34 33 33 33 35 35 34 33 33 33 32 34 36 40 39 39 41 41 40 38 39 38 38 43 47 44 45 47 49 46 49
40 39 37 37 36 37 37 37 35 33 32 33 33 33 33 33 35 36 35 33 33 33 33 33 35 37 38 38 38 39 40 41 37 39 39 44 43 44 46 46 47 50 49
39 38 38 37 36 36 36 35 35 34 33 33 32 33 33 33 35 35 34 33 33 33 33 33 35 36 38 38 39 40 39 41 42 45 44 46 44 47 51 51 49 50 50
37 37 37 37 36 36 35 33 34 32 32 34 33 32 32 33 35 35 34 33 33 33 34 35 35 36 38 39 40 37 39 39 43 45 44 42 41 40 46 52 50 49 46
37 37 38 37 36 35 35 35 35 32 31 32 34 34 34 33 36 36 35 33 32 32 33 35 36 36 37 37 38 37 35 37 44 46 47 48 48 45 41 49 53 49 45
37 38 39 38 36 35 35 36 35 33 32 32 33 33 33 34 35 37 37 33 33 32 32 33 35 36 37 38 38 38 36 42 41 43 44 46 45 45 47 49 50 51 46
37 37 38 37 37 36 35 35 35 34 32 31 32 33 33 33 35 36 35 35 36 34 32 34 36 37 37 38 37 37 39 38 42 38 38 35 36 38 42 44 45 45 47
37 36 37 37 37 36 34 34 33 34 32 31 32 32 32 33 33 35 36 35 34 34 34 34 36 37 36 35 36 36 37 38 35 35 35 34 34 36 42 43 44 43 41
36 35 35 35 36 36 35 35 33 33 33 32 32 31 32 32 33 34 35 35 35 35 34 35 33 33 33 33 37 37 37 35 36 35 34 34 36 37 41 45 42 42 39
38 36 34 35 35 35 35 34 33 33 33 33 32 32 32 32 33 34 34 33 33 32 34 35 36 35 35 35 35 35 35 37 35 34 35 35 35 37 38 40 41 40 38
37 36 33 33 34 34 34 35 35 34 35 35 35 33 35 35 36 37 37 36 35 33 36 36 35 35 34 35 37 35 34 36 36 36 36 35 36 37 39 38 42 41 37
37 35 34 33 33 33 33 32 32 35 36 35 35 35 36 36 36 37 37 36 37 37 36 35 34 35 35 35 35 35 34 34 37 36 36 36 36 37 39 38 38 38 37
39 35 34 32 33 33 32 32 32 32 31 32 34 35 35 36 36 37 38 38 36 37 35 35 35 35 35 36 35 35 35 36 36 36 37 37 37 38 38 37 38 38 38
41 38 35 34 32 32 33 33 32 32 31 31 32 33 35 36 36 36 37 37 36 35 35 35 35 36 36 36 35 35 35 35 35 36 36 36 36 39 37 38 38 37 39
38 34 35 36 34 34 33 33 32 32 31 31 30 30 33 35 34 33 34 34 35 35 35 35 35 36 36 36 35 35 35 35 36 36 35 36 36 38 38 38 39 39 37
39 37 36 36 35 34 33 32 32 32 31 31 30 31 32 32 32 32 32 33 33 34 34 35 35 35 36 36 36 35 35 34 35 36 36 37 35 37 37 37 37 37 37
40 40 40 39 38 35 34 34 33 33 32 32 31 32 32 32 32 32 32 32 33 33 33 34 34 35 35 35 34 34 34 34 35 36 36 36 37 37 37 37 36 36 36
42 41 39 38 39 38 36 35 35 34 33 32 32 31 31 31 31 31 32 32 32 33 34 34 33 33 34 34 34 34 35 34 35 36 36 36 36 37 37 37 36 36 36
42 41 39 37 36 35 36 35 35 34 34 34 33 33 32 32 32 32 32 32 32 33 33 33 33 33 33 33 34 34 34 35 35 35 36 36 36 36 36 36 36 35 35
42 40 38 37 34 32 32 35 35 33 32 33 33 33 33 33 33 33 33 33 32 33 33 32 33 33 33 34 34 34 33 34 34 35 36 37 34 34 36 36 36 36 35
44 43 40 38 35 32 33 34 32 31 30 32 32 31 33 33 33 33 33 33 33 32 33 33 33 33 33 33 34 33 34 34 35 35 36 37 36 36 36 36 36 35 35
MSLP
1018.73 1018.49 1018.44 1018.36 1018.35 1018.23 1017.95 1017.59 1017.30 1017.05 1016.84 1016.71 1016.63 1016.56 1016.55 1016.60 1016.84 1017.08 1017.10 1017.04 1017.24 1017.47 1017.47 1017.50 1017.96 1018.41 1019.29 1019.77 1020.23 1020.86 1021.61 1021.92 1022.45 1021.79 1021.11 1020.19 1020.15 1020.26 1020.54 1020.74 1020.76 1020.95 1021.12
1018.41 1018.52 1018.39 1018.37 1018.14 1017.82 1017.49 1017.14 1016.89 1016.61 1016.30 1016.03 1015.77 1015.63 1015.70 1015.84 1016.10 1016.42 1016.60 1016.68 1016.88 1017.35 1017.57 1017.67 1017.91 1018.24 1019.11 1019.80 1020.20 1020.75 1021.34 1021.63 1022.17 1022.12 1021.26 1020.40 1020.28 1020.22 1020.24 1020.69 1020.51 1020.47 1020.71
1018.64 1018.65 1018.58 1018.40 1017.95 1017.59 1017.22 1016.80 1016.41 1016.06 1015.73 1015.47 1015.22 1015.02 1014.85 1014.84 1015.18 1015.56 1015.97 1016.33 1016.64 1017.02 1017.39 1017.76 1018.37 1018.27 1019.20 1019.84 1020.22 1020.67 1021.14 1021.50 1021.98 1022.09 1021.67 1020.74 1020.29 1020.32 1020.41 1020.49 1020.47 1020.40 1020.39
1018.98 1018.80 1018.64 1018.25 1017.84 1017.44 1017.00 1016.54 1016.07 1015.58 1015.37 1015.08 1014.68 1014.32 1014.30 1014.23 1014.19 1014.71 1015.30 1015.80 1016.25 1016.67 1017.12 1017.64 1018.31 1018.66 1019.21 1019.73 1020.10 1020.47 1021.09 1021.67 1021.92 1021.93 1021.65 1021.05 1020.61 1020.31 1020.44 1020.60 1020.63 1020.43 1020.65
1019.12 1018.83 1018.60 1018.25 1017.81 1017.39 1016.94 1016.38 1015.85 1015.55 1015.26 1014.80 1014.38 1014.00 1013.65 1013.51 1013.68 1013.86 1014.59 1015.22 1015.83 1016.41 1016.78 1017.45 1018.01 1018.39 1019.29 1019.65 1019.95 1020.43 1021.04 1021.63 1021.82 1021.83 1021.76 1021.15 1020.59 1020.51 1020.69 1020.65 1020.68 1020.67 1020.61
1019.18 1018.97 1018.72 1018.38 1017.87 1017.36 1016.84 1016.24 1015.82 1015.52 1015.10 1014.74 1014.11 1013.68 1013.28 1012.99 1013.04 1013.51 1014.07 1014.80 1015.44 1016.17 1016.61 1017.09 1017.62 1018.27 1018.94 1019.72 1020.10 1020.23 1020.78 1021.35 1021.61 1021.82 1021.65 1021.29 1020.78 1020.69 1020.64 1020.70 1020.67 1020.75 1020.77
1019.38 1019.21 1018.90 1018.40 1017.93 1017.38 1016.85 1016.36 1016.09 1015.76 1015.36 1014.93 1014.45 1013.86 1013.44 1012.98 1012.90 1013.42 1014.06 1014.69 1015.37 1015.96 1016.51 1017.05 1017.58 1018.06 1018.77 1019.52 1020.26 1020.35 1020.81 1021.01 1021.33 1021.64 1021.52 1021.24 1020.96 1020.80 1020.45 1020.54 1020.70 1020.58 1020.71
1019.68 1019.39 1018.90 1018.48 1018.00 1017.60 1017.02 1016.80 1016.36 1016.05 1015.60 1015.27 1014.87 1014.38 1013.98 1013.76 1013.69 1013.95 1014.36 1014.78 1015.41 1015.98 1016.56 1016.92 1017.45 1018.01 1018.55 1019.24 1020.21 1020.65 1020.73 1020.90 1021.07 1021.16 1021.08 1020.83 1020.69 1020.48 1020.12 1019.86 1020.19 1020.84 1021.07
1019.99 1019.60 1019.15 1018.77 1018.36 1017.89 1017.41 1017.11 1016.72 1016.38 1016.03 1015.63 1015.22 1015.01 1014.69 1014.43 1014.35 1014.44 1014.70 1015.11 1015.59 1016.19 1016.69 1017.22 1017.57 1018.01 1018.59 1019.30 1019.94 1020.35 1020.63 1020.83 1020.68 1020.65 1020.53 1020.51 1020.47 1020.21 1019.84 1019.66 1020.19 1020.57 1021.57
1020.37 1019.93 1019.53 1019.11 1018.71 1018.22 1017.75 1017.36 1017.02 1016.66 1016.44 1016.08 1015.58 1015.31 1015.16 1015.02 1014.94 1015.09 1015.36 1015.69 1015.96 1016.54 1017.03 1017.45 1017.85 1018.09 1018.68 1019.26 1019.80 1020.18 1020.63 1020.86 1020.69 1020.50 1020.41 1020.22 1020.04 1020.06 1019.54 1019.54 1020.01 1020.38 1021.34
1020.84 1020.25 1019.82 1019.39 1019.03 1018.68 1018.17 1017.74 1017.38 1017.01 1016.81 1016.57 1016.09 1015.74 1015.64 1015.58 1015.60 1015.68 1015.89 1016.08 1016.19 1016.77 1017.24 1017.44 1017.97 1018.39 1019.07 1019.58 1019.87 1020.14 1020.53 1020.68 1020.79 1020.84 1020.83 1020.67 1020.52 1020.02 1020.02 1019.85 1019.87 1020.38 1021.07
1021.09 1020.61 1020.22 1019.90 1019.46 1019.04 1018.61 1018.27 1017.82 1017.42 1017.30 1017.21 1016.81 1016.47 1016.46 1016.26 1016.19 1016.30 1016.55 1016.48 1016.76 1016.99 1017.54 1017.68 1018.16 1018.82 1019.31 1019.61 1019.99 1020.31 1020.56 1020.83 1021.10 1021.25 1021.17 1021.37 1021.15 1020.88 1020.85 1020.83 1021.01 1021.11 1021.24
1021.36 1021.01 1020.71 1020.43 1020.01 1019.55 1019.25 1018.90 1018.46 1018.14 1017.90 1017.84 1017.57 1017.30 1017.18 1017.11 1017.06 1016.95 1017.26 1017.36 1017.62 1017.76 1017.93 1018.39 1018.79 1019.21 1019.52 1019.87 1020.28 1020.62 1020.94 1021.26 1021.49 1021.64 1021.69 1021.76 1021.57 1021.43 1021.22 1021.09 1021.63 1021.92 1022.52
1021.65 1021.49 1021.28 1021.01 1020.66 1020.41 1019.88 1019.53 1019.17 1018.92 1018.58 1018.48 1018.25 1017.93 1017.93 1017.89 1017.93 1017.95 1018.10 1018.18 1018.24 1018.52 1018.94 1019.18 1019.36 1019.65 1020.04 1020.39 1020.83 1021.04 1021.48 1021.56 1021.54 1021.91 1022.25 1021.81 1021.64 1021.81 1021.51 1021.70 1022.33 1022.88 1023.85
1021.89 1022.00 1021.77 1021.50 1021.23 1020.99 1020.83 1020.49 1020.02 1019.75 1019.40 1019.17 1018.97 1018.67 1018.36 1018.54 1018.64 1018.47 1018.52 1018.69 1019.01 1019.32 1019.55 1019.83 1020.10 1020.46 1020.74 1021.22 1021.49 1021.65 1021.62 1021.59 1021.73 1021.97 1022.04 1022.15 1022.18 1022.06 1022.15 1022.24 1022.53 1023.04 1024.18
1022.03 1022.17 1022.20 1022.00 1021.79 1021.61 1021.46 1021.24 1020.91 1020.40 1019.98 1019.71 1019.37 1019.28 1019.22 1018.98 1019.02 1019.03 1019.13 1019.34 1019.48 1019.52 1019.72 1020.12 1020.58 1021.02 1021.34 1021.59 1021.85 1021.92 1021.85 1021.93 1021.98 1022.08 1022.20 1022.21 1022.57 1022.68 1022.73 1022.92 1023.17 1023.70 1024.64
1022.65 1022.53 1022.53 1022.47 1022.37 1022.24 1022.03 1021.84 1021.57 1021.20 1020.79 1020.54 1020.23 1019.85 1019.82 1020.02 1020.01 1020.01 1019.79 1019.63 1019.66 1019.73 1020.13 1020.73 1021.11 1021.40 1021.49 1021.69 1021.88 1021.95 1022.06 1022.00 1022.03 1022.28 1022.36 1022.53 1022.78 1023.03 1023.17 1023.65 1024.02 1024.43 1025.37
1023.00 1022.92 1022.89 1023.01 1022.90 1022.76 1022.61 1022.45 1022.24 1022.05 1021.67 1021.29 1020.95 1020.75 1020.42 1020.28 1020.28 1020.27 1020.17 1020.04 1020.51 1020.68 1020.82 1021.07 1021.26 1021.32 1021.44 1021.69 1021.88 1022.06 1022.21 1022.23 1022.36 1022.40 1022.74 1022.79 1022.93 1023.32 1023.65 1024.10 1024.57 1024.88 1025.45
1023.41 1023.36 1023.24 1023.21 1023.35 1023.16 1023.11 1023.05 1022.81 1022.61 1022.47 1022.21 1021.68 1021.35 1021.12 1020.93 1020.83 1020.92 1020.95 1021.01 1021.15 1021.22 1021.30 1021.33 1021.44 1021.67 1021.86 1021.96 1022.05 1022.19 1022.27 1022.46 1022.56 1022.59 1022.80 1023.12 1023.23 1023.37 1024.11 1024.58 1024.84 1025.34 1025.94
1023.92 1023.87 1023.78 1023.60 1023.49 1023.56 1023.51 1023.50 1023.47 1023.38 1023.20 1022.95 1022.76 1022.53 1022.08 1021.62 1021.82 1021.89 1021.78 1021.80 1021.87 1022.02 1022.03 1021.96 1021.93 1021.96 1022.00 1022.13 1022.22 1022.52 1022.65 1022.57 1022.85 1023.04 1023.20 1023.32 1023.60 1023.83 1024.13 1024.66 1025.17 1025.75 1026.48
1024.03 1024.12 1024.09 1024.05 1023.99 1023.87 1023.93 1023.97 1023.97 1023.87 1023.78 1023.64 1023.56 1023.33 1022.89 1022.69 1022.81 1022.78 1022.74 1022.64 1022.56 1022.46 1022.36 1022.29 1022.30 1022.39 1022.42 1022.34 1022.30 1022.57 1022.78 1022.78 1023.09 1023.09 1023.40 1023.74 1024.08 1024.42 1024.62 1025.17 1025.70 1026.34 1026.94
1024.44 1024.31 1024.23 1024.27 1024.30 1024.26 1024.30 1024.30 1024.26 1024.16 1024.17 1024.11 1024.07 1023.94 1023.75 1023.57 1023.48 1023.44 1023.44 1023.30 1023.22 1023.13 1023.03 1022.81 1022.73 1022.54 1022.50 1022.51 1022.64 1022.78 1022.75 1023.04 1023.23 1023.44 1023.66 1023.99 1024.40 1024.79 1025.26 1025.80 1026.38 1026.94 1027.51
1024.81 1024.84 1024.78 1024.73 1024.67 1024.62 1024.66 1024.54 1024.53 1024.55 1024.54 1024.54 1024.48 1024.40 1024.33 1024.21 1024.13 1024.04 1023.97 1023.83 1023.61 1023.39 1023.25 1023.15 1023.12 1023.08 1022.93 1022.91 1022.97 1022.96 1023.19 1023.38 1023.54 1023.54 1023.86 1024.33 1024.72 1025.24 1025.65 1026.15 1026.63 1027.28 1027.89
1025.17 1025.15 1025.28 1025.36 1025.33 1025.37 1025.38 1025.37 1025.32 1025.11 1024.99 1024.97 1024.86 1024.82 1024.77 1024.68 1024.60 1024.48 1024.35 1024.23 1024.10 1024.03 1023.92 1023.75 1023.60 1023.32 1023.19 1023.24 1023.19 1023.26 1023.31 1023.48 1023.65 1023.92 1024.15 1024.47 1024.95 1025.50 1026.05 1026.54 1027.09 1027.68 1028.19
1025.56 1025.55 1025.62 1025.77 1026.03 1026.16 1026.05 1025.82 1025.83 1025.81 1025.83 1025.67 1025.39 1025.27 1025.17 1025.06 1025.00 1024.88 1024.71 1024.56 1024.50 1024.36 1024.25 1024.20 1024.15 1024.05 1023.88 1023.72 1023.60 1023.58 1023.67 1023.68 1023.90 1024.14 1024.53 1024.89 1025.39 1025.90 1026.36 1026.84 1027.36 1027.94 1028.43
1025.95 1025.91 1025.98 1026.06 1026.26 1026.40 1026.55 1026.47 1026.39 1026.34 1026.32 1026.23 1026.15 1025.88 1025.73 1025.61 1025.42 1025.26 1025.06 1024.84 1024.74 1024.66 1024.61 1024.54 1024.45 1024.34 1024.29 1024.27 1024.21 1024.12 1024.15 1024.22 1024.43 1024.63 1024.92 1025.32 1025.75 1026.40 1026.77 1027.19 1027.69 1028.28 1028.91
Wind_Speed
4 4 4 4 4 4 5 5 6 6 7 7 7 7 7 6 6 5 7 7 6 4 3 5 8 7 5 4 4 3 4 3 2 4 5 4 2 3 4 3 5 6 6
5 4 5 4 5 5 6 7 7 8 7 9 10 10 10 8 8 8 7 7 9 6 4 4 5 6 7 5 4 5 4 3 3 4 7 2 2 1 4 4 3 4 4
6 6 6 5 7 6 7 9 9 7 7 6 7 7 7 9 9 8 8 9 9 9 8 6 2 6 7 5 4 5 3 2 2 1 5 2 1 0 1 2 3 1 3
7 5 6 8 8 8 7 8 8 8 5 7 7 8 7 6 9 9 9 8 7 7 8 9 11 7 4 10 8 6 4 3 2 2 4 3 1 4 2 2 2 2 2
7 8 8 9 8 8 8 9 8 7 6 6 7 6 7 6 5 10 10 10 9 7 9 10 11 14 14 6 7 6 5 4 2 3 3 2 1 0 2 1 2 2 2
8 8 9 9 9 9 8 9 7 6 6 7 6 6 4 3 10 14 11 8 9 9 8 9 11 21 16 9 7 8 7 6 4 2 2 2 1 2 2 2 2 2 3
8 8 9 9 9 8 9 8 7 6 6 8 8 8 6 5 6 14 14 7 8 9 8 8 8 7 14 10 7 6 9 9 5 2 1 1 2 2 3 2 4 4 1
8 9 10 9 9 9 9 9 6 5 7 6 8 8 7 5 11 12 12 8 9 8 7 8 10 11 11 11 10 9 6 5 4 2 4 4 4 6 7 5 5 5 7
10 10 10 10 9 10 8 7 6 5 6 7 6 8 9 6 11 13 9 7 7 8 7 7 7 10 18 18 12 7 6 4 3 5 8 7 8 11 9 7 7 8 5
9 9 9 10 9 9 9 8 6 4 5 5 8 6 8 6 9 14 8 5 7 5 5 8 13 9 17 12 8 6 6 4 3 3 4 5 6 2 8 1 7 5 7
8 8 9 10 8 9 9 8 5 5 5 6 6 7 8 7 10 14 11 3 6 8 6 6 7 17 11 11 7 6 6 5 2 3 4 2 2 3 3 3 5 7 5
7 7 9 10 8 7 9 8 9 6 5 7 7 7 7 6 10 14 13 12 13 8 6 8 9 19 12 12 7 8 8 4 3 1 2 1 2 3 3 4 8 8 7
7 8 8 8 11 10 9 8 6 7 5 5 5 5 6 6 7 17 14 15 12 8 6 11 14 12 12 9 10 9 5 2 1 1 1 1 1 2 3 8 11 14 14
7 8 7 7 7 10 8 7 7 6 6 5 5 6 6 6 6 6 7 9 14 12 10 6 6 7 7 6 5 5 2 1 2 2 1 2 3 2 3 7 8 9 10
7 7 7 6 7 7 7 8 6 7 7 6 5 4 4 6 4 6 7 5 6 5 5 4 5 4 5 3 2 2 0 2 2 1 1 3 2 2 3 3 6 5 8
8 6 5 5 5 6 6 5 11 12 16 15 12 6 7 9 9 10 14 12 7 3 5 8 6 4 3 4 6 2 2 3 2 3 3 2 3 3 6 3 7 9 11
10 6 4 5 5 5 5 5 5 6 7 12 14 14 10 13 12 9 4 8 9 8 6 6 4 4 3 4 3 1 1 1 3 3 3 3 4 4 7 6 6 8 8
8 8 5 4 4 4 4 4 4 5 5 5 6 10 14 12 9 8 8 7 5 6 3 4 4 3 3 3 3 2 2 2 2 3 4 3 3 6 7 6 7 9 10
5 7 6 4 4 4 4 4 5 5 5 4 5 6 8 11 15 13 10 5 4 4 4 4 3 4 3 3 3 3 3 3 3 3 3 4 3 6 6 6 7 8 11
3 4 5 5 4 5 4 4 4 4 4 5 5 5 5 5 6 5 6 4 4 4 3 3 3 3 3 3 3 3 4 3 4 4 4 4 4 4 6 7 7 9 6
4 2 2 3 6 5 4 5 4 4 3 3 4 5 7 5 5 5 4 5 4 4 3 3 3 3 3 2 2 3 4 3 4 4 5 5 4 6 5 6 7 7 9
4 5 4 4 4 4 4 4 4 4 4 4 3 4 7 4 4 4 4 4 3 3 2 3 3 3 3 2 2 3 3 4 3 4 5 6 6 6 6 7 7 7 8
5 5 5 5 4 4 5 5 5 5 5 5 4 4 4 4 3 3 3 3 3 3 3 3 3 2 3 2 3 2 3 4 3 3 6 6 6 6 6 8 8 7 6
5 5 5 5 5 5 4 4 4 5 5 5 5 4 4 3 3 3 3 3 3 3 3 3 3 4 3 3 2 3 3 3 3 4 5 6 6 7 7 7 6 8 8
5 5 5 5 4 4 4 4 4 4 4 4 3 3 3 3 3 3 3 2 3 3 3 3 2 3 4 5 4 5 4 6 5 6 5 6 8 7 7 7 8 7 8
5 5 4 4 4 3 4 4 4 3 3 4 4 3 3 3 3 3 3 3 3 3 3 2 3 5 5 4 5 4 5 5 5 7 6 7 7 6 6 8 9 7 8
Wind_Direction
342 314 318 343 359 335 316 291 277 271 270 261 255 245 231 220 210 226 238 205 168 158 96 147 147 135 142 138 133 130 127 126 138 305 291 232 121 165 168 185 200 200 209
302 351 7 2 335 321 296 293 285 279 279 270 261 247 242 230 226 204 220 216 178 185 161 88 115 124 133 142 137 145 132 131 122 302 312 336 116 208 176 194 227 222 208
14 14 8 339 327 313 312 310 306 295 284 281 283 276 262 230 215 211 198 209 201 187 174 157 198 104 156 153 152 146 126 137 155 250 289 291 140 219 195 273 246 122 100
23 11 352 340 335 329 321 320 304 295 318 310 290 267 266 252 220 195 194 198 191 190 186 171 188 172 178 175 162 153 157 158 168 264 284 278 208 267 147 197 315 60 96
6 5 354 344 342 334 330 331 319 355 328 309 321 289 264 229 217 186 192 192 185 182 177 184 183 166 165 189 145 150 168 166 172 251 285 279 299 78 174 242 209 140 132
4 4 355 346 339 333 333 337 347 341 341 349 337 330 330 267 205 186 161 170 170 175 168 171 176 184 166 190 150 153 172 171 184 195 245 261 241 215 222 212 164 115 165
1 6 350 345 336 334 344 347 7 358 356 12 6 13 13 20 151 161 150 157 163 167 168 171 160 163 166 173 197 184 211 183 167 161 253 276 294 240 206 221 200 167 82
8 1 352 351 339 342 350 358 16 5 13 20 24 22 43 58 106 127 129 135 144 143 146 147 162 171 177 157 182 192 170 172 145 201 241 271 272 288 243 193 157 108 87
11 357 359 350 347 357 8 3 358 1 18 30 31 43 48 43 94 100 95 100 117 125 133 138 142 152 167 166 171 152 159 154 182 248 273 310 304 289 226 124 134 152 116
5 354 356 357 1 3 1 9 354 7 16 24 42 40 48 53 94 110 99 111 117 128 127 158 142 152 150 163 150 148 137 169 189 258 312 312 297 212 68 99 141 143 118
5 352 7 7 9 10 5 16 354 19 28 21 16 31 51 58 81 102 104 92 134 137 146 135 148 158 157 136 139 138 160 167 237 315 304 297 352 36 39 50 80 148 100
8 357 14 21 19 13 7 5 5 8 39 27 14 36 46 44 74 95 91 75 97 110 128 121 125 141 110 100 88 134 134 73 1 315 114 19 4 27 15 85 78 69 47
15 4 6 26 25 18 10 15 12 13 21 33 27 42 49 42 55 76 108 93 99 98 105 99 103 100 87 74 68 65 57 79 170 105 107 318 253 18 165 88 87 89 70
32 17 11 21 26 35 16 23 30 19 21 33 37 27 50 57 62 69 86 95 100 97 103 87 87 96 91 90 58 56 62 171 158 123 129 326 8 3 92 119 107 99 90
32 31 14 15 17 13 42 29 35 40 39 45 35 21 17 78 77 100 112 100 92 94 89 103 107 107 95 68 82 154 86 101 91 75 92 96 67 84 68 87 104 89 102
29 29 21 16 19 22 21 37 33 38 34 33 35 44 40 63 108 112 109 134 147 183 91 108 104 103 117 137 154 126 49 137 114 103 112 98 100 106 103 58 101 117 117
28 16 20 24 25 27 23 25 23 2 22 39 27 30 56 118 112 110 112 60 71 81 80 101 108 129 124 122 126 120 109 33 116 102 113 104 96 90 113 108 105 114 109
40 27 29 22 23 31 30 24 25 21 0 357 7 29 36 51 67 84 72 63 63 61 74 89 91 84 86 103 110 117 110 103 87 100 102 99 96 114 114 112 123 126 120
44 40 27 34 36 27 31 37 22 24 20 10 0 10 10 37 58 52 57 73 76 58 51 53 71 95 103 110 111 92 107 114 110 106 82 103 95 118 108 112 112 116 124
90 68 41 37 37 39 32 46 45 37 31 18 18 2 355 40 48 31 33 47 70 71 56 76 58 76 93 110 114 116 122 114 109 111 105 104 89 111 119 119 124 122 106
47 98 91 39 47 41 42 41 36 40 39 38 35 16 21 45 50 46 41 39 38 31 33 54 58 91 108 112 103 105 109 100 99 106 115 112 107 111 94 96 101 110 117
46 31 35 57 54 52 47 41 45 41 35 41 31 33 37 48 44 42 37 32 19 35 26 44 43 42 64 92 105 110 105 113 108 111 111 112 115 113 116 115 114 115 123
42 48 34 31 37 47 51 42 44 44 37 36 35 39 33 42 40 41 39 21 14 21 24 47 48 33 30 56 90 100 121 132 135 129 128 122 121 122 127 126 129 125 126
39 46 58 48 46 40 40 49 54 49 38 39 38 39 37 32 42 42 37 32 38 38 29 27 25 36 36 51 59 68 84 99 98 106 103 117 121 119 120 120 120 121 118
40 43 46 58 56 51 37 36 35 36 36 24 22 35 33 20 35 31 32 31 44 41 37 38 43 54 65 79 73 84 85 92 95 95 94 105 110 107 120 121 124 118 121
19 31 42 53 57 59 52 35 30 38 48 48 34 25 32 39 32 27 23 27 40 45 59 44 66 74 74 74 94 94 97 102 106 110 114 121 120 115 117 119 120 123 126